TimeCDT,TemperatureF,Dew PointF,Humidity,Sea Level PressureIn,VisibilityMPH,Wind Direction,Wind SpeedMPH,Gust SpeedMPH,PrecipitationIn,Events,Conditions,WindDirDegrees,DateUTC
12:15 AM,69.8,62.6,78,29.86,10.0,NW,3.5,-,N/A,,Clear,310,2013-06-27 05:15:00
12:35 AM,69.8,62.6,78,29.86,10.0,WNW,3.5,-,N/A,,Clear,290,2013-06-27 05:35:00
1:15 AM,69.8,62.6,78,29.87,10.0,Calm,Calm,-,N/A,,Clear,0,2013-06-27 06:15:00
1:35 AM,69.8,62.6,78,29.87,10.0,Calm,Calm,-,N/A,,Clear,0,2013-06-27 06:35:00
1:55 AM,69.8,62.6,78,29.87,10.0,Calm,Calm,-,N/A,,Clear,0,2013-06-27 06:55:00
2:15 AM,68.0,62.6,83,29.87,10.0,Calm,Calm,-,N/A,,Clear,0,2013-06-27 07:15:00
2:35 AM,68.0,62.6,83,29.87,10.0,Calm,Calm,-,N/A,,Clear,0,2013-06-27 07:35:00
2:55 AM,69.8,62.6,78,29.86,10.0,WSW,5.8,-,N/A,,Clear,240,2013-06-27 07:55:00
3:15 AM,69.8,62.6,78,29.87,10.0,Calm,Calm,-,N/A,,Scattered Clouds,0,2013-06-27 08:15:00
3:35 AM,68.0,62.6,83,29.86,10.0,Calm,Calm,-,N/A,,Clear,0,2013-06-27 08:35:00
3:55 AM,68.0,62.6,83,29.86,10.0,Calm,Calm,-,N/A,,Clear,0,2013-06-27 08:55:00
4:15 AM,66.2,62.6,88,29.86,10.0,Calm,Calm,-,N/A,,Clear,0,2013-06-27 09:15:00
4:35 AM,66.2,62.6,88,29.86,10.0,Calm,Calm,-,N/A,,Clear,0,2013-06-27 09:35:00
4:55 AM,66.2,62.6,88,29.87,10.0,Calm,Calm,-,N/A,,Clear,0,2013-06-27 09:55:00
5:15 AM,68.0,62.6,83,29.87,10.0,Calm,Calm,-,N/A,,Clear,0,2013-06-27 10:15:00
5:35 AM,68.0,62.6,83,29.88,10.0,Calm,Calm,-,N/A,,Clear,0,2013-06-27 10:35:00
5:55 AM,68.0,62.6,83,29.88,10.0,Calm,Calm,-,N/A,,Clear,0,2013-06-27 10:55:00
6:15 AM,68.0,62.6,83,29.88,10.0,SW,5.8,-,N/A,,Scattered Clouds,230,2013-06-27 11:15:00
6:35 AM,69.8,62.6,78,29.87,10.0,SW,3.5,-,N/A,,Clear,230,2013-06-27 11:35:00
6:55 AM,71.6,60.8,69,29.88,10.0,SW,3.5,-,N/A,,Clear,230,2013-06-27 11:55:00
7:15 AM,73.4,62.6,69,29.88,10.0,WSW,4.6,-,N/A,,Clear,240,2013-06-27 12:15:00
7:35 AM,73.4,62.6,69,29.88,10.0,WSW,6.9,-,N/A,,Clear,240,2013-06-27 12:35:00
7:55 AM,75.2,62.6,65,29.87,10.0,WSW,5.8,-,N/A,,Clear,240,2013-06-27 12:55:00
8:15 AM,77.0,62.6,61,29.87,10.0,WSW,4.6,-,N/A,,Clear,240,2013-06-27 13:15:00
8:35 AM,78.8,60.8,54,29.87,10.0,West,11.5,-,N/A,,Clear,280,2013-06-27 13:35:00
8:55 AM,78.8,62.6,57,29.88,10.0,WNW,10.4,-,N/A,,Clear,300,2013-06-27 13:55:00
9:15 AM,78.8,62.6,57,29.89,10.0,WNW,10.4,-,N/A,,Clear,300,2013-06-27 14:15:00
9:35 AM,78.8,60.8,54,29.88,10.0,WNW,13.8,18.4,N/A,,Clear,300,2013-06-27 14:35:00
9:55 AM,78.8,60.8,54,29.88,10.0,NW,9.2,-,N/A,,Clear,310,2013-06-27 14:55:00
10:15 AM,78.8,62.6,57,29.88,10.0,WNW,6.9,-,N/A,,Clear,290,2013-06-27 15:15:00
10:35 AM,80.6,60.8,51,29.88,10.0,WNW,10.4,-,N/A,,Clear,300,2013-06-27 15:35:00
10:55 AM,80.6,60.8,51,29.89,10.0,WNW,11.5,-,N/A,,Clear,300,2013-06-27 15:55:00
11:15 AM,80.6,59.0,48,29.89,10.0,WNW,10.4,-,N/A,,Clear,300,2013-06-27 16:15:00
11:35 AM,82.4,59.0,45,29.90,10.0,WNW,12.7,18.4,N/A,,Clear,290,2013-06-27 16:35:00
11:55 AM,84.2,59.0,42,29.91,10.0,NW,12.7,21.9,N/A,,Clear,310,2013-06-27 16:55:00
12:15 PM,84.2,57.2,40,29.91,10.0,NW,12.7,21.9,N/A,,Clear,320,2013-06-27 17:15:00
12:35 PM,82.4,53.6,37,29.91,10.0,WNW,17.3,23.0,N/A,,Clear,300,2013-06-27 17:35:00
12:55 PM,84.2,55.4,37,29.92,10.0,WNW,17.3,25.3,N/A,,Clear,300,2013-06-27 17:55:00
1:15 PM,86.0,53.6,33,29.91,10.0,NW,15.0,20.7,N/A,,Clear,310,2013-06-27 18:15:00
1:35 PM,84.2,50.0,30,29.91,10.0,WNW,19.6,23.0,N/A,,Clear,300,2013-06-27 18:35:00
1:55 PM,84.2,51.8,33,29.90,10.0,NW,15.0,23.0,N/A,,Clear,320,2013-06-27 18:55:00
2:15 PM,86.0,51.8,31,29.90,10.0,NW,17.3,21.9,N/A,,Clear,310,2013-06-27 19:15:00
2:35 PM,86.0,51.8,31,29.90,10.0,WNW,18.4,26.5,N/A,,Clear,300,2013-06-27 19:35:00
2:55 PM,86.0,50.0,29,29.90,10.0,WNW,17.3,25.3,N/A,,Scattered Clouds,290,2013-06-27 19:55:00
3:15 PM,86.0,50.0,29,29.89,10.0,WNW,15.0,20.7,N/A,,Scattered Clouds,300,2013-06-27 20:15:00
3:35 PM,86.0,51.8,31,29.89,10.0,WNW,16.1,24.2,N/A,,Scattered Clouds,300,2013-06-27 20:35:00
3:55 PM,86.0,50.0,29,29.89,10.0,NW,17.3,24.2,N/A,,Scattered Clouds,310,2013-06-27 20:55:00
4:15 PM,86.0,50.0,29,29.88,10.0,WNW,15.0,20.7,N/A,,Clear,290,2013-06-27 21:15:00
4:35 PM,86.0,46.4,25,29.88,10.0,NNW,15.0,21.9,N/A,,Clear,330,2013-06-27 21:35:00
4:55 PM,86.0,50.0,29,29.88,10.0,WNW,16.1,21.9,N/A,,Clear,290,2013-06-27 21:55:00
5:15 PM,86.0,50.0,29,29.88,10.0,WNW,13.8,-,N/A,,Scattered Clouds,300,2013-06-27 22:15:00
5:35 PM,86.0,50.0,29,29.87,10.0,WNW,17.3,25.3,N/A,,Scattered Clouds,290,2013-06-27 22:35:00
5:55 PM,86.0,48.2,27,29.87,10.0,WNW,15.0,25.3,N/A,,Clear,300,2013-06-27 22:55:00
6:15 PM,86.0,50.0,29,29.86,10.0,WNW,11.5,20.7,N/A,,Clear,300,2013-06-27 23:15:00
6:35 PM,86.0,46.4,25,29.87,10.0,NW,15.0,25.3,N/A,,Clear,310,2013-06-27 23:35:00
6:55 PM,84.2,48.2,29,29.86,10.0,NW,16.1,21.9,N/A,,Clear,310,2013-06-27 23:55:00
7:15 PM,84.2,46.4,27,29.86,10.0,NW,16.1,23.0,N/A,,Clear,310,2013-06-28 00:15:00
7:35 PM,82.4,48.2,30,29.86,10.0,NW,10.4,17.3,N/A,,Clear,310,2013-06-28 00:35:00
7:55 PM,82.4,50.0,32,29.86,10.0,NW,11.5,17.3,N/A,,Clear,310,2013-06-28 00:55:00
8:15 PM,80.6,50.0,34,29.86,10.0,NW,10.4,-,N/A,,Clear,310,2013-06-28 01:15:00
8:35 PM,80.6,50.0,34,29.86,10.0,NW,8.1,18.4,N/A,,Clear,320,2013-06-28 01:35:00
8:55 PM,78.8,51.8,39,29.85,10.0,NW,9.2,-,N/A,,Clear,320,2013-06-28 01:55:00
9:15 PM,78.8,51.8,39,29.85,10.0,NW,8.1,-,N/A,,Clear,320,2013-06-28 02:15:00
9:35 PM,75.2,53.6,47,29.86,10.0,NW,4.6,-,N/A,,Clear,310,2013-06-28 02:35:00
9:55 PM,73.4,55.4,53,29.86,10.0,West,4.6,-,N/A,,Clear,280,2013-06-28 02:55:00
10:15 PM,71.6,57.2,60,29.86,10.0,WNW,4.6,-,N/A,,Clear,290,2013-06-28 03:15:00
10:35 PM,71.6,57.2,60,29.85,10.0,WNW,4.6,-,N/A,,Clear,300,2013-06-28 03:35:00
10:55 PM,69.8,57.2,64,29.86,7.0,WNW,3.5,-,N/A,,Clear,290,2013-06-28 03:55:00
11:15 PM,69.8,57.2,64,29.86,10.0,WNW,4.6,-,N/A,,Clear,290,2013-06-28 04:15:00
11:35 PM,69.8,55.4,60,29.86,10.0,West,4.6,-,N/A,,Clear,280,2013-06-28 04:35:00
11:55 PM,69.8,55.4,60,29.87,10.0,WSW,4.6,-,N/A,,Clear,240,2013-06-28 04:55:00